IRIDIUM 106 1 41917U 17003A 26167.53734041 .00000023 00000+0 10685-5 0 9991 2 41917 86.3962 88.8279 0001768 85.4600 274.6797 14.34217586493116 IRIDIUM 103 1 41918U 17003B 26167.52465626 .00000053 00000+0 11813-4 0 9997 2 41918 86.3963 88.7331 0002303 78.0444 282.1010 14.34217665493138 IRIDIUM 109 1 41919U 17003C 26167.53099897 .00000005 00000+0 -54486-5 0 9994 2 41919 86.3962 88.7898 0002151 82.9153 277.2287 14.34217424493109 IRIDIUM 102 1 41920U 17003D 26167.49928421 .00000126 00000+0 37894-4 0 9991 2 41920 86.3961 88.7266 0002232 85.9381 274.2070 14.34218648493189 IRIDIUM 105 1 41921U 17003E 26167.59741908 .00000182 00000+0 57874-4 0 9998 2 41921 86.3965 57.1170 0002489 82.7828 277.3650 14.34219514495052 IRIDIUM 104 1 41922U 17003F 26167.51197136 .00000039 00000+0 68943-5 0 9990 2 41922 86.3962 88.7639 0002456 80.5444 279.6029 14.34217714493170 IRIDIUM 114 1 41923U 17003G 26167.51831341 .00000057 00000+0 13186-4 0 9992 2 41923 86.3962 88.7445 0002322 80.9452 279.2007 14.34217876493150 IRIDIUM 108 1 41924U 17003H 26167.40706394 .00000163 00000+0 51118-4 0 9995 2 41924 86.3959 57.0866 0002248 86.4676 273.6777 14.34219033494991 IRIDIUM 112 1 41925U 17003J 26167.50562888 .00000026 00000+0 23794-5 0 9993 2 41925 86.3958 88.5918 0002329 84.0750 276.0712 14.34217400493176 IRIDIUM 111 1 41926U 17003K 26167.49295214 .00000221 00000+0 72027-4 0 9997 2 41926 86.3960 88.6677 0002248 82.6591 277.4860 14.34217622493153 IRIDIUM 113 1 42803U 17039A 26167.47290739 .00000020 00000+0 -37883-7 0 9998 2 42803 86.3968 322.4772 0002269 89.1999 270.9457 14.34217739471085 IRIDIUM 123 1 42804U 17039B 26167.58415329 .00000096 00000+0 27360-4 0 9993 2 42804 86.3971 353.8892 0002006 85.8170 274.3255 14.34218020469865 IRIDIUM 120 1 42805U 17039C 26167.46656356 .00000204 00000+0 65724-4 0 9995 2 42805 86.3958 322.2625 0002019 95.0641 265.0785 14.34216318471074 IRIDIUM 115 1 42806U 17039D 26167.35592514 .00000166 00000+0 43207-4 0 9998 2 42806 86.4495 322.4373 0001990 90.4533 269.6896 14.43282675474143 IRIDIUM 118 1 42807U 17039E 26167.47632700 .00000142 00000+0 43721-4 0 9999 2 42807 86.3971 353.9326 0002180 88.6205 271.5240 14.34219262469844 IRIDIUM 117 1 42808U 17039F 26167.56512600 .00000002 00000+0 -63939-5 0 9996 2 42808 86.3968 353.8531 0002006 86.8692 273.2733 14.34217657469881 IRIDIUM 126 1 42809U 17039G 26167.59049420 .00000186 00000+0 59408-4 0 9992 2 42809 86.3970 353.8935 0002211 85.2330 274.9119 14.34219264469863 IRIDIUM 124 1 42810U 17039H 26167.63640330 .00000258 00000+0 70776-4 0 9997 2 42810 86.4483 290.5891 0002199 93.3507 266.7946 14.43281847475033 IRIDIUM 128 1 42811U 17039J 26167.58123457 -.00000004 00000+0 -85231-5 0 9992 2 42811 86.3965 25.4035 0001885 88.0505 272.0906 14.34217621469895 IRIDIUM 121 1 42812U 17039K 26167.53975460 .00000131 00000+0 39717-4 0 9993 2 42812 86.3972 353.9425 0002113 90.9229 269.2209 14.34218714469737 IRIDIUM 133 1 42955U 17061A 26167.61294731 .00000007 00000+0 -45688-5 0 9998 2 42955 86.3966 25.5080 0001978 85.9873 274.1549 14.34216919454690 IRIDIUM 100 1 42956U 17061B 26167.60660472 .00000057 00000+0 13422-4 0 9991 2 42956 86.3967 25.4295 0002155 87.1013 273.0430 14.34216955454694 IRIDIUM 122 1 42957U 17061C 26167.57489259 .00000049 00000+0 10302-4 0 9995 2 42957 86.3967 25.4429 0002160 83.6517 276.4925 14.34217812454699 IRIDIUM 129 1 42958U 17061D 26167.60026342 -.00000031 00000+0 -17965-4 0 9995 2 42958 86.3965 25.4992 0002296 85.2709 274.8749 14.34217397454711 IRIDIUM 119 1 42959U 17061E 26167.56854994 .00000028 00000+0 30345-5 0 9995 2 42959 86.3968 25.5084 0002221 84.0288 276.1161 14.34217784454729 IRIDIUM 107 1 42960U 17061F 26167.58757724 .00000147 00000+0 45357-4 0 9992 2 42960 86.3969 25.5218 0001944 82.0681 278.0736 14.34216761454731 IRIDIUM 132 1 42961U 17061G 26167.59392060 .00000053 00000+0 12036-4 0 9996 2 42961 86.3968 25.4986 0002163 85.0462 275.0981 14.34217630454731 IRIDIUM 136 1 42962U 17061H 26167.55587373 .00000190 00000+0 60704-4 0 9993 2 42962 86.3969 25.5212 0002174 88.3523 271.7922 14.34219312454740 IRIDIUM 139 1 42963U 17061J 26167.56220697 .00000053 00000+0 11916-4 0 9997 2 42963 86.3972 25.5805 0002076 87.9067 272.2366 14.34217961454759 IRIDIUM 125 1 42964U 17061K 26167.54952805 .00000131 00000+0 39596-4 0 9990 2 42964 86.3972 25.6468 0002203 73.0131 287.1307 14.34213986454760 IRIDIUM 135 1 43070U 17083A 26167.52364796 .00000008 00000+0 -43183-5 0 9999 2 43070 86.3961 322.2929 0002063 91.4719 268.6713 14.34217499444054 IRIDIUM 138 1 43071U 17083B 26167.47924933 .00000146 00000+0 45245-4 0 9991 2 43071 86.3977 322.0067 0002324 87.1801 272.9660 14.34217762444037 IRIDIUM 116 1 43072U 17083C 26167.51730453 .00000024 00000+0 15307-5 0 9991 2 43072 86.3962 322.2814 0001958 98.4570 261.6848 14.34217830444077 IRIDIUM 130 1 43073U 17083D 26167.48559022 .00000100 00000+0 28481-4 0 9990 2 43073 86.3969 322.5698 0001928 91.7783 268.3634 14.34218464444012 IRIDIUM 151 1 43074U 17083E 26167.46022198 .00000004 00000+0 -56785-5 0 9991 2 43074 86.3965 322.3630 0002155 92.7488 267.3954 14.34217590444034 IRIDIUM 134 1 43075U 17083F 26167.49827722 -.00000021 00000+0 -14661-4 0 9997 2 43075 86.3962 322.3553 0001970 91.4410 268.7011 14.34217414444002 IRIDIUM 137 1 43076U 17083G 26167.51096238 .00000018 00000+0 -63757-6 0 9998 2 43076 86.3968 322.4427 0002245 103.8016 256.3430 14.34217784444071 IRIDIUM 141 1 43077U 17083H 26167.50461947 .00000028 00000+0 27802-5 0 9991 2 43077 86.3962 322.2759 0002208 90.9096 269.2353 14.34217923444077 IRIDIUM 153 1 43078U 17083J 26167.59633605 .00000019 00000+0 -38203-6 0 9992 2 43078 86.3957 290.7180 0002145 89.8448 270.2993 14.34217623445190 IRIDIUM 131 1 43079U 17083K 26166.86401575 .00000141 00000+0 43115-4 0 9992 2 43079 86.3968 322.7297 0002217 92.0861 268.0589 14.34219103443912 IRIDIUM 144 1 43249U 18030A 26166.83522286 .00000087 00000+0 24000-4 0 9995 2 43249 86.3958 290.9653 0002106 96.4936 263.6500 14.34218493429942 IRIDIUM 149 1 43250U 18030B 26167.60902165 -.00000019 00000+0 -13979-4 0 9991 2 43250 86.3954 290.6088 0002134 93.9882 266.1558 14.34217235430072 IRIDIUM 157 1 43251U 18030C 26167.62804910 -.00000016 00000+0 -12831-4 0 9996 2 43251 86.3956 290.6541 0002073 94.1116 266.0317 14.34217373430057 IRIDIUM 140 1 43252U 18030D 26167.57730822 .00000004 00000+0 -55786-5 0 9994 2 43252 86.3956 290.6878 0002031 93.6183 266.5245 14.34217459430109 IRIDIUM 145 1 43253U 18030E 26167.42508563 .00000033 00000+0 46480-5 0 9996 2 43253 86.3958 290.7236 0001978 101.0274 259.1144 14.34217516430015 IRIDIUM 146 1 43254U 18030F 26167.40605701 .00000080 00000+0 21428-4 0 9993 2 43254 86.3958 290.7438 0002106 96.6538 263.4898 14.34218284430024 IRIDIUM 148 1 43255U 18030G 26167.58365111 .00000042 00000+0 80823-5 0 9994 2 43255 86.3960 290.7126 0002259 96.3704 263.7749 14.34217744430087 IRIDIUM 142 1 43256U 18030H 26167.41240075 .00000025 00000+0 17394-5 0 9992 2 43256 86.3955 290.6732 0002089 98.7561 261.3872 14.34217412430029 IRIDIUM 150 1 43257U 18030J 26167.58999345 .00000025 00000+0 18103-5 0 9991 2 43257 86.3959 290.7153 0002136 93.5533 266.5908 14.34217601430079 IRIDIUM 143 1 43258U 18030K 26167.64073399 -.00000020 00000+0 -14341-4 0 9997 2 43258 86.3959 290.7868 0001965 96.6397 263.5023 14.34217272430017 IRIDIUM 161 1 43478U 18047C 26167.33702309 .00000270 00000+0 74362-4 0 9999 2 43478 86.4481 88.8266 0002513 84.5503 275.5984 14.43282515425010 IRIDIUM 152 1 43479U 18047D 26167.19484069 .00000093 00000+0 26195-4 0 9998 2 43479 86.3959 88.7473 0002327 82.9531 277.1929 14.34218238422346 IRIDIUM 147 1 43480U 18047E 26167.48025803 .00000031 00000+0 41151-5 0 9991 2 43480 86.3959 88.6330 0002129 85.6546 274.4893 14.34217561422387 IRIDIUM 110 1 43481U 18047F 26167.48660148 .00000078 00000+0 20876-4 0 9990 2 43481 86.3961 88.7221 0002571 82.5757 277.5731 14.34217150422370 IRIDIUM 162 1 43482U 18047G 26167.33073259 .00000285 00000+0 78663-4 0 9993 2 43482 86.4481 88.7204 0002268 82.4078 277.7381 14.43281281425000 IRIDIUM 160 1 43569U 18061A 26167.43243605 .00000074 00000+0 19309-4 0 9998 2 43569 86.3963 57.1131 0002258 85.4201 274.7253 14.34218031413262 IRIDIUM 166 1 43570U 18061B 26167.59734355 .00000039 00000+0 70143-5 0 9999 2 43570 86.3962 56.9946 0002101 86.3272 273.8164 14.34217735413316 IRIDIUM 158 1 43571U 18061C 26167.42609323 .00000075 00000+0 19797-4 0 9995 2 43571 86.3961 57.0762 0002183 82.4256 277.7188 14.34217977413253 IRIDIUM 165 1 43572U 18061D 26167.45146309 .00000097 00000+0 27704-4 0 9990 2 43572 86.3964 57.1120 0002057 86.4541 273.6890 14.34217516413284 IRIDIUM 155 1 43573U 18061E 26167.41340841 .00000038 00000+0 63684-5 0 9997 2 43573 86.3958 56.9968 0002108 82.6114 277.5321 14.34217637413248 IRIDIUM 154 1 43574U 18061F 26167.60368348 .00000186 00000+0 59305-4 0 9999 2 43574 86.3960 57.0508 0002127 87.4407 272.7032 14.34216459413329 IRIDIUM 163 1 43575U 18061G 26167.44511783 .00000053 00000+0 11892-4 0 9997 2 43575 86.3960 57.0325 0002247 84.0968 276.0484 14.34216397413278 IRIDIUM 156 1 43576U 18061H 26167.41975037 .00000102 00000+0 29468-4 0 9994 2 43576 86.3959 57.0504 0002034 82.1106 278.0321 14.34217735413261 IRIDIUM 164 1 43577U 18061J 26167.40072148 .00000128 00000+0 38515-4 0 9996 2 43577 86.3961 57.0986 0002097 89.0182 271.1254 14.34218643413301 IRIDIUM 159 1 43578U 18061K 26167.43877916 .00000075 00000+0 19696-4 0 9996 2 43578 86.3960 57.0196 0002278 83.7030 276.4425 14.34217681413273 IRIDIUM 180 1 43922U 19002A 26167.57781002 .00000184 00000+0 58677-4 0 9993 2 43922 86.3971 353.8524 0002245 88.7725 271.3728 14.34218945388905 IRIDIUM 176 1 43923U 19002B 26167.54723077 .00000632 00000+0 96280-4 0 9999 2 43923 86.6090 353.8087 0002270 92.4555 267.6922 14.72266322399153 IRIDIUM 168 1 43924U 19002C 26167.57146757 .00000053 00000+0 11957-4 0 9992 2 43924 86.3973 353.9323 0002166 88.9431 271.2013 14.34218392388884 IRIDIUM 173 1 43925U 19002D 26167.55878222 .00000140 00000+0 42908-4 0 9997 2 43925 86.3970 353.8265 0002195 87.4429 272.7018 14.34218762388869 IRIDIUM 169 1 43926U 19002E 26167.55668662 .00000230 00000+0 68526-4 0 9997 2 43926 86.4224 25.4571 0001876 72.4944 287.6459 14.38608713390136 IRIDIUM 172 1 43927U 19002F 26167.55244000 .00000140 00000+0 42829-4 0 9992 2 43927 86.3969 353.8371 0002245 88.6934 271.4519 14.34218289388874 IRIDIUM 175 1 43928U 19002G 26167.37474996 .00000271 00000+0 73956-4 0 9992 2 43928 86.4511 290.8605 0002389 181.7008 178.4185 14.43612318398861 IRIDIUM 171 1 43929U 19002H 26167.60318144 .00000140 00000+0 42930-4 0 9994 2 43929 86.3978 354.1220 0002045 90.6324 269.5106 14.34218053388876 IRIDIUM 170 1 43930U 19002J 26167.55341151 .00000632 00000+0 96242-4 0 9995 2 43930 86.6090 353.8086 0002349 89.0139 271.1347 14.72266803399163 IRIDIUM 167 1 43931U 19002K 26167.59683849 .00000014 00000+0 -21886-5 0 9991 2 43931 86.3966 353.8409 0001766 91.4531 268.6867 14.34217653388878 IRIDIUM 181 1 56726U 23068S 26167.41315952 .00000317 00000+0 88189-4 0 9995 2 56726 86.4499 57.1140 0002348 88.6689 271.4780 14.43312166162322 IRIDIUM 177 1 56727U 23068T 26167.44375512 .00000910 00000+0 11622-3 0 9993 2 56727 86.1961 329.1445 0002364 87.0605 273.0887 14.80229186166255 IRIDIUM 174 1 56728U 23068U 26167.54107331 .00000650 00000+0 99228-4 0 9997 2 56728 86.6098 353.9611 0002462 84.0328 276.1170 14.72263140165921 IRIDIUM 178 1 56729U 23068V 26167.56809259 .00000796 00000+0 10126-3 0 9998 2 56729 86.6538 25.6190 0002634 85.9533 274.1990 14.80232762166277 IRIDIUM 179 1 56730U 23068W 26167.56269094 .00000720 00000+0 91262-4 0 9995 2 56730 86.6779 34.5993 0002425 89.0006 271.1493 14.80236028166278